Year,Month,Day,Hour,Minute,Value (Times are PST for barometer in hPa)
2024,03,02,00,00,995.29
2024,03,02,00,01,995.33
2024,03,02,00,02,995.36
2024,03,02,00,03,995.29
2024,03,02,00,04,995.29
2024,03,02,00,05,995.26
2024,03,02,00,06,995.23
2024,03,02,00,07,995.29
2024,03,02,00,08,995.26
2024,03,02,00,09,995.12
2024,03,02,00,10,995.19
2024,03,02,00,11,995.23
2024,03,02,00,12,995.12
2024,03,02,00,13,995.16
2024,03,02,00,14,995.19
2024,03,02,00,15,995.16
2024,03,02,00,16,995.16
2024,03,02,00,17,995.12
2024,03,02,00,18,995.12
2024,03,02,00,19,995.16
2024,03,02,00,20,995.23
2024,03,02,00,21,995.12
2024,03,02,00,22,995.09
2024,03,02,00,23,995.02
2024,03,02,00,24,995.12
2024,03,02,00,25,995.09
2024,03,02,00,26,995.12
2024,03,02,00,27,995.09
2024,03,02,00,28,995.06
2024,03,02,00,29,995.02
2024,03,02,00,30,995.02
2024,03,02,00,31,995.09
2024,03,02,00,32,994.99
2024,03,02,00,33,995.09
2024,03,02,00,34,994.99
2024,03,02,00,35,995.06
2024,03,02,00,36,995.09
2024,03,02,00,37,995.06
2024,03,02,00,38,995.09
2024,03,02,00,39,995.06
2024,03,02,00,40,995.06
2024,03,02,00,41,995.06
2024,03,02,00,42,995.09
2024,03,02,00,43,995.09
2024,03,02,00,44,995.16
2024,03,02,00,45,995.09
2024,03,02,00,46,995.06
2024,03,02,00,47,995.06
2024,03,02,00,48,995.12
2024,03,02,00,49,995.06
2024,03,02,00,50,995.12
2024,03,02,00,51,995.06
2024,03,02,00,52,995.12
2024,03,02,00,53,995.09
2024,03,02,00,54,995.02
2024,03,02,00,55,995.09
2024,03,02,00,56,995.06
2024,03,02,00,57,995.02
2024,03,02,00,58,995.06
2024,03,02,00,59,995.06
2024,03,02,01,00,995.12
2024,03,02,01,01,995.09
2024,03,02,01,02,995.09
2024,03,02,01,03,994.99
2024,03,02,01,04,994.99
2024,03,02,01,05,994.92
2024,03,02,01,06,994.92
2024,03,02,01,07,994.99
2024,03,02,01,08,994.96
2024,03,02,01,09,995.02
2024,03,02,01,10,995.06
2024,03,02,01,11,995.09
2024,03,02,01,12,995.02
2024,03,02,01,13,995.02
2024,03,02,01,14,994.96
2024,03,02,01,15,994.92
2024,03,02,01,16,994.92
2024,03,02,01,17,994.92
2024,03,02,01,18,994.85
2024,03,02,01,19,994.75
2024,03,02,01,20,994.85
2024,03,02,01,21,994.85
2024,03,02,01,22,994.82
2024,03,02,01,23,994.79
2024,03,02,01,24,994.85
2024,03,02,01,25,994.75
2024,03,02,01,26,994.82
2024,03,02,01,27,994.79
2024,03,02,01,28,994.79
2024,03,02,01,29,994.68
2024,03,02,01,30,994.75
2024,03,02,01,31,994.75
2024,03,02,01,32,994.72
2024,03,02,01,33,994.68
2024,03,02,01,34,994.65
2024,03,02,01,35,994.65
2024,03,02,01,36,994.65
2024,03,02,01,37,994.68
2024,03,02,01,38,994.72
2024,03,02,01,39,994.65
2024,03,02,01,40,994.55
2024,03,02,01,41,994.58
2024,03,02,01,42,994.52
2024,03,02,01,43,994.52
2024,03,02,01,44,994.55
2024,03,02,01,45,994.48
2024,03,02,01,46,994.48
2024,03,02,01,47,994.48
2024,03,02,01,48,994.48
2024,03,02,01,49,994.41
2024,03,02,01,50,994.45
2024,03,02,01,51,994.48
2024,03,02,01,52,994.38
2024,03,02,01,53,994.45
2024,03,02,01,54,994.35
2024,03,02,01,55,994.35
2024,03,02,01,56,994.41
2024,03,02,01,57,994.41
2024,03,02,01,58,994.48
2024,03,02,01,59,994.45
2024,03,02,02,00,994.35
2024,03,02,02,01,994.41
2024,03,02,02,02,994.45
2024,03,02,02,03,994.41
2024,03,02,02,04,994.35
2024,03,02,02,05,994.35
2024,03,02,02,06,994.48
2024,03,02,02,07,994.41
2024,03,02,02,08,994.41
2024,03,02,02,09,994.41
2024,03,02,02,10,994.41
2024,03,02,02,11,994.38
2024,03,02,02,12,994.28
2024,03,02,02,13,994.24
2024,03,02,02,14,994.28
2024,03,02,02,15,994.21
2024,03,02,02,16,994.21
2024,03,02,02,17,994.14
2024,03,02,02,18,994.30
2024,03,02,02,19,994.24
2024,03,02,02,20,994.24
2024,03,02,02,21,994.28
2024,03,02,02,22,994.28
2024,03,02,02,23,994.24
2024,03,02,02,24,994.24
2024,03,02,02,25,994.24
2024,03,02,02,26,994.24
2024,03,02,02,27,994.21
2024,03,02,02,28,994.21
2024,03,02,02,29,994.21
2024,03,02,02,30,994.14
2024,03,02,02,31,994.21
2024,03,02,02,32,994.14
2024,03,02,02,33,994.21
2024,03,02,02,34,994.21
2024,03,02,02,35,994.14
2024,03,02,02,36,994.18
2024,03,02,02,37,994.18
2024,03,02,02,38,994.14
2024,03,02,02,39,994.07
2024,03,02,02,40,994.07
2024,03,02,02,41,994.07
2024,03,02,02,42,993.97
2024,03,02,02,43,993.97
2024,03,02,02,44,993.94
2024,03,02,02,45,993.94
2024,03,02,02,46,993.97
2024,03,02,02,47,994.01
2024,03,02,02,48,993.84
2024,03,02,02,49,993.84
2024,03,02,02,50,993.87
2024,03,02,02,51,993.84
2024,03,02,02,52,993.91
2024,03,02,02,53,993.84
2024,03,02,02,54,993.84
2024,03,02,02,55,993.84
2024,03,02,02,56,993.74
2024,03,02,02,57,993.80
2024,03,02,02,58,993.80
2024,03,02,02,59,993.77
2024,03,02,03,00,993.70
2024,03,02,03,01,993.90
2024,03,02,03,02,993.84
2024,03,02,03,03,993.84
2024,03,02,03,04,993.87
2024,03,02,03,05,993.94
2024,03,02,03,06,993.94
2024,03,02,03,07,993.91
2024,03,02,03,08,993.94
2024,03,02,03,09,994.07
2024,03,02,03,10,994.04
2024,03,02,03,11,994.11
2024,03,02,03,12,994.07
2024,03,02,03,13,994.18
2024,03,02,03,14,994.21
2024,03,02,03,15,994.14
2024,03,02,03,16,994.07
2024,03,02,03,17,994.04
2024,03,02,03,18,994.07
2024,03,02,03,19,994.11
2024,03,02,03,20,994.04
2024,03,02,03,21,994.07
2024,03,02,03,22,994.11
2024,03,02,03,23,994.07
2024,03,02,03,24,994.11
2024,03,02,03,25,994.04
2024,03,02,03,26,994.07
2024,03,02,03,27,994.04
2024,03,02,03,28,994.14
2024,03,02,03,29,994.11
2024,03,02,03,30,994.01
2024,03,02,03,31,994.04
2024,03,02,03,32,993.97
2024,03,02,03,33,993.94
2024,03,02,03,34,993.94
2024,03,02,03,35,994.01
2024,03,02,03,36,993.97
2024,03,02,03,37,993.97
2024,03,02,03,38,993.94
2024,03,02,03,39,993.97
2024,03,02,03,40,994.01
2024,03,02,03,41,993.97
2024,03,02,03,42,993.97
2024,03,02,03,43,993.87
2024,03,02,03,44,993.91
2024,03,02,03,45,993.84
2024,03,02,03,46,993.80
2024,03,02,03,47,993.77
2024,03,02,03,48,993.80
2024,03,02,03,49,993.80
2024,03,02,03,50,993.84
2024,03,02,03,51,993.77
2024,03,02,03,52,993.77
2024,03,02,03,53,993.84
2024,03,02,03,54,993.74
2024,03,02,03,55,993.77
2024,03,02,03,56,993.80
2024,03,02,03,57,993.84
2024,03,02,03,58,993.87
2024,03,02,03,59,993.91
2024,03,02,04,00,993.87
2024,03,02,04,01,993.87
2024,03,02,04,02,993.84
2024,03,02,04,03,993.97
2024,03,02,04,04,993.94
2024,03,02,04,05,993.94
2024,03,02,04,06,993.87
2024,03,02,04,07,993.91
2024,03,02,04,08,993.94
2024,03,02,04,09,993.94
2024,03,02,04,10,993.87
2024,03,02,04,11,993.94
2024,03,02,04,12,993.91
2024,03,02,04,13,993.91
2024,03,02,04,14,993.84
2024,03,02,04,15,993.80
2024,03,02,04,16,993.80
2024,03,02,04,17,993.87
2024,03,02,04,18,993.84
2024,03,02,04,19,993.87
2024,03,02,04,20,993.87
2024,03,02,04,21,993.87
2024,03,02,04,22,993.87
2024,03,02,04,23,993.77
2024,03,02,04,24,993.74
2024,03,02,04,25,993.80
2024,03,02,04,26,993.77
2024,03,02,04,27,993.77
2024,03,02,04,28,993.77
2024,03,02,04,29,993.67
2024,03,02,04,30,993.80
2024,03,02,04,31,993.74
2024,03,02,04,32,993.70
2024,03,02,04,33,993.80
2024,03,02,04,34,993.77
2024,03,02,04,35,993.67
2024,03,02,04,36,993.77
2024,03,02,04,37,993.77
2024,03,02,04,38,993.74
2024,03,02,04,39,993.70
2024,03,02,04,40,993.70
2024,03,02,04,41,993.60
2024,03,02,04,42,993.67
2024,03,02,04,43,993.70
2024,03,02,04,44,993.77
2024,03,02,04,45,993.70
2024,03,02,04,46,993.60
2024,03,02,04,47,993.67
2024,03,02,04,48,993.63
2024,03,02,04,49,993.63
2024,03,02,04,50,993.63
2024,03,02,04,51,993.63
2024,03,02,04,52,993.70
2024,03,02,04,53,993.74
2024,03,02,04,54,993.70
2024,03,02,04,55,993.77
2024,03,02,04,56,993.67
2024,03,02,04,57,993.80
2024,03,02,04,58,993.67
2024,03,02,04,59,993.77
2024,03,02,05,00,993.70
2024,03,02,05,01,993.70
2024,03,02,05,02,993.80
2024,03,02,05,03,993.70
2024,03,02,05,04,993.63
2024,03,02,05,05,993.67
2024,03,02,05,06,993.77
2024,03,02,05,07,993.60
2024,03,02,05,08,993.74
2024,03,02,05,09,993.74
2024,03,02,05,10,993.74
2024,03,02,05,11,993.84
2024,03,02,05,12,993.77
2024,03,02,05,13,993.74
2024,03,02,05,14,993.77
2024,03,02,05,15,993.80
2024,03,02,05,16,993.70
2024,03,02,05,17,993.77
2024,03,02,05,18,993.74
2024,03,02,05,19,993.80
2024,03,02,05,20,993.80
2024,03,02,05,21,993.77
2024,03,02,05,22,993.77
2024,03,02,05,23,993.84
2024,03,02,05,24,993.84
2024,03,02,05,25,993.77
2024,03,02,05,26,993.77
2024,03,02,05,27,993.80
2024,03,02,05,28,993.80
2024,03,02,05,29,993.74
2024,03,02,05,30,993.74
2024,03,02,05,31,993.84
2024,03,02,05,32,993.80
2024,03,02,05,33,993.84
2024,03,02,05,34,993.91
2024,03,02,05,35,993.80
2024,03,02,05,36,993.87
2024,03,02,05,37,993.87
2024,03,02,05,38,993.97
2024,03,02,05,39,993.97
2024,03,02,05,40,993.97
2024,03,02,05,41,993.91
2024,03,02,05,42,993.91
2024,03,02,05,43,993.94
2024,03,02,05,44,993.91
2024,03,02,05,45,994.04
2024,03,02,05,46,994.01
2024,03,02,05,47,994.04
2024,03,02,05,48,993.91
2024,03,02,05,49,993.97
2024,03,02,05,50,993.97
2024,03,02,05,51,993.84
2024,03,02,05,52,993.97
2024,03,02,05,53,993.94
2024,03,02,05,54,994.01
2024,03,02,05,55,993.97
2024,03,02,05,56,994.07
2024,03,02,05,57,994.07
2024,03,02,05,58,994.07
2024,03,02,05,59,994.14
2024,03,02,06,00,994.11
2024,03,02,06,01,994.07
2024,03,02,06,02,994.07
2024,03,02,06,03,994.07
2024,03,02,06,04,993.97
2024,03,02,06,05,994.07
2024,03,02,06,06,994.04
2024,03,02,06,07,994.07
2024,03,02,06,08,994.04
2024,03,02,06,09,994.14
2024,03,02,06,10,994.14
2024,03,02,06,11,994.18
2024,03,02,06,12,994.21
2024,03,02,06,13,994.14
2024,03,02,06,14,994.14
2024,03,02,06,15,994.14
2024,03,02,06,16,994.14
2024,03,02,06,17,994.14
2024,03,02,06,18,994.14
2024,03,02,06,19,994.07
2024,03,02,06,20,994.14
2024,03,02,06,21,994.07
2024,03,02,06,22,994.11
2024,03,02,06,23,994.14
2024,03,02,06,24,994.07
2024,03,02,06,25,994.14
2024,03,02,06,26,994.18
2024,03,02,06,27,994.21
2024,03,02,06,28,994.24
2024,03,02,06,29,994.21
2024,03,02,06,30,994.28
2024,03,02,06,31,994.18
2024,03,02,06,32,994.14
2024,03,02,06,33,994.14
2024,03,02,06,34,994.07
2024,03,02,06,35,994.14
2024,03,02,06,36,994.14
2024,03,02,06,37,994.11
2024,03,02,06,38,994.11
2024,03,02,06,39,994.07
2024,03,02,06,40,993.97
2024,03,02,06,41,994.04
2024,03,02,06,42,994.07
2024,03,02,06,43,994.04
2024,03,02,06,44,994.07
2024,03,02,06,45,994.04
2024,03,02,06,46,994.04
2024,03,02,06,47,994.04
2024,03,02,06,48,993.97
2024,03,02,06,49,993.97
2024,03,02,06,50,993.87
2024,03,02,06,51,993.94
2024,03,02,06,52,994.01
2024,03,02,06,53,994.04
2024,03,02,06,54,994.14
2024,03,02,06,55,994.21
2024,03,02,06,56,994.18
2024,03,02,06,57,994.24
2024,03,02,06,58,994.21
2024,03,02,06,59,994.24
2024,03,02,07,00,994.14
2024,03,02,07,01,994.14
2024,03,02,07,02,994.21
2024,03,02,07,03,994.21
2024,03,02,07,04,994.18
2024,03,02,07,05,994.14
2024,03,02,07,06,994.14
2024,03,02,07,07,994.18
2024,03,02,07,08,994.21
2024,03,02,07,09,994.18
2024,03,02,07,10,994.14
2024,03,02,07,11,994.14
2024,03,02,07,12,994.17
2024,03,02,07,13,994.04
2024,03,02,07,14,994.14
2024,03,02,07,15,994.31
2024,03,02,07,16,994.28
2024,03,02,07,17,994.52
2024,03,02,07,18,994.35
2024,03,02,07,19,994.38
2024,03,02,07,20,994.38
2024,03,02,07,21,994.45
2024,03,02,07,22,994.35
2024,03,02,07,23,994.41
2024,03,02,07,24,994.24
2024,03,02,07,25,994.35
2024,03,02,07,26,994.28
2024,03,02,07,27,994.28
2024,03,02,07,28,994.28
2024,03,02,07,29,994.31
2024,03,02,07,30,994.24
2024,03,02,07,31,994.35
2024,03,02,07,32,994.24
2024,03,02,07,33,994.35
2024,03,02,07,34,994.41
2024,03,02,07,35,994.38
2024,03,02,07,36,994.31
2024,03,02,07,37,994.48
2024,03,02,07,38,994.41
2024,03,02,07,39,994.45
2024,03,02,07,40,994.38
2024,03,02,07,41,994.48
2024,03,02,07,42,994.55
2024,03,02,07,43,994.55
2024,03,02,07,44,994.55
2024,03,02,07,45,994.58
2024,03,02,07,46,994.58
2024,03,02,07,47,994.55
2024,03,02,07,48,994.58
2024,03,02,07,49,994.55
2024,03,02,07,50,994.58
2024,03,02,07,51,994.62
2024,03,02,07,52,994.55
2024,03,02,07,53,994.58
2024,03,02,07,54,994.68
2024,03,02,07,55,994.68
2024,03,02,07,56,994.72
2024,03,02,07,57,994.82
2024,03,02,07,58,994.75
2024,03,02,07,59,994.79
2024,03,02,08,00,994.75
2024,03,02,08,01,994.75
2024,03,02,08,02,994.79
2024,03,02,08,03,994.72
2024,03,02,08,04,994.89
2024,03,02,08,05,994.85
2024,03,02,08,06,994.89
2024,03,02,08,07,994.92
2024,03,02,08,08,994.92
2024,03,02,08,09,994.96
2024,03,02,08,10,994.96
2024,03,02,08,11,994.99
2024,03,02,08,12,995.02
2024,03,02,08,13,994.99
2024,03,02,08,14,995.06
2024,03,02,08,15,994.96
2024,03,02,08,16,994.99
2024,03,02,08,17,994.99
2024,03,02,08,18,994.92
2024,03,02,08,19,995.02
2024,03,02,08,20,994.99
2024,03,02,08,21,995.09
2024,03,02,08,22,994.99
2024,03,02,08,23,995.02
2024,03,02,08,24,994.99
2024,03,02,08,25,995.06
2024,03,02,08,26,995.06
2024,03,02,08,27,995.12
2024,03,02,08,28,995.12
2024,03,02,08,29,995.09
2024,03,02,08,30,995.12
2024,03,02,08,31,995.06
2024,03,02,08,32,994.99
2024,03,02,08,33,995.06
2024,03,02,08,34,995.09
2024,03,02,08,35,995.12
2024,03,02,08,36,995.12
2024,03,02,08,37,995.23
2024,03,02,08,38,995.19
2024,03,02,08,39,995.26
2024,03,02,08,40,995.23
2024,03,02,08,41,995.19
2024,03,02,08,42,995.23
2024,03,02,08,43,995.23
2024,03,02,08,44,995.23
2024,03,02,08,45,995.19
2024,03,02,08,46,995.19
2024,03,02,08,47,995.23
2024,03,02,08,48,995.19
2024,03,02,08,49,995.26
2024,03,02,08,50,995.29
2024,03,02,08,51,995.29
2024,03,02,08,52,995.26
2024,03,02,08,53,995.26
2024,03,02,08,54,995.23
2024,03,02,08,55,995.26
2024,03,02,08,56,995.29
2024,03,02,08,57,995.40
2024,03,02,08,58,995.40
2024,03,02,08,59,995.43
2024,03,02,09,00,995.46
2024,03,02,09,01,995.46
2024,03,02,09,02,995.50
2024,03,02,09,03,995.43
2024,03,02,09,04,995.50
2024,03,02,09,05,995.50
2024,03,02,09,06,995.46
2024,03,02,09,07,995.50
2024,03,02,09,08,995.56
2024,03,02,09,09,995.53
2024,03,02,09,10,995.56
2024,03,02,09,11,995.53
2024,03,02,09,12,995.56
2024,03,02,09,13,995.67
2024,03,02,09,14,995.67
2024,03,02,09,15,995.60
2024,03,02,09,16,995.63
2024,03,02,09,17,995.73
2024,03,02,09,18,995.70
2024,03,02,09,19,995.73
2024,03,02,09,20,995.80
2024,03,02,09,21,995.77
2024,03,02,09,22,995.80
2024,03,02,09,23,995.87
2024,03,02,09,24,995.84
2024,03,02,09,25,995.84
2024,03,02,09,26,995.84
2024,03,02,09,27,995.87
2024,03,02,09,28,995.84
2024,03,02,09,29,995.87
2024,03,02,09,30,995.87
2024,03,02,09,31,995.94
2024,03,02,09,32,995.94
2024,03,02,09,33,995.97
2024,03,02,09,34,995.97
2024,03,02,09,35,996.01
2024,03,02,09,36,996.04
2024,03,02,09,37,995.97
2024,03,02,09,38,996.07
2024,03,02,09,39,996.11
2024,03,02,09,40,996.14
2024,03,02,09,41,996.11
2024,03,02,09,42,996.21
2024,03,02,09,43,996.21
2024,03,02,09,44,996.21
2024,03,02,09,45,996.17
2024,03,02,09,46,996.11
2024,03,02,09,47,996.17
2024,03,02,09,48,996.21
2024,03,02,09,49,996.28
2024,03,02,09,50,996.24
2024,03,02,09,51,996.21
2024,03,02,09,52,996.28
2024,03,02,09,53,996.31
2024,03,02,09,54,996.34
2024,03,02,09,55,996.28
2024,03,02,09,56,996.31
2024,03,02,09,57,996.31
2024,03,02,09,58,996.34
2024,03,02,09,59,996.31
2024,03,02,10,00,996.28
2024,03,02,10,01,996.34
2024,03,02,10,02,996.41
2024,03,02,10,03,996.38
2024,03,02,10,04,996.38
2024,03,02,10,05,996.51
2024,03,02,10,06,996.51
2024,03,02,10,07,996.51
2024,03,02,10,08,996.55
2024,03,02,10,09,996.51
2024,03,02,10,10,996.55
2024,03,02,10,11,996.58
2024,03,02,10,12,996.65
2024,03,02,10,13,996.65
2024,03,02,10,14,996.72
2024,03,02,10,15,996.72
2024,03,02,10,16,996.75
2024,03,02,10,17,996.78
2024,03,02,10,18,996.85
2024,03,02,10,19,996.82
2024,03,02,10,20,996.78
2024,03,02,10,21,996.89
2024,03,02,10,22,996.89
2024,03,02,10,23,996.95
2024,03,02,10,24,996.99
2024,03,02,10,25,996.99
2024,03,02,10,26,996.92
2024,03,02,10,27,996.92
2024,03,02,10,28,996.95
2024,03,02,10,29,996.99
2024,03,02,10,30,996.99
2024,03,02,10,31,997.02
2024,03,02,10,32,996.95
2024,03,02,10,33,997.02
2024,03,02,10,34,996.95
2024,03,02,10,35,996.95
2024,03,02,10,36,996.92
2024,03,02,10,37,996.92
2024,03,02,10,38,996.99
2024,03,02,10,39,997.02
2024,03,02,10,40,997.05
2024,03,02,10,41,997.09
2024,03,02,10,42,997.12
2024,03,02,10,43,997.12
2024,03,02,10,44,997.02
2024,03,02,10,45,997.12
2024,03,02,10,46,997.05
2024,03,02,10,47,997.16
2024,03,02,10,48,997.12
2024,03,02,10,49,997.12
2024,03,02,10,50,997.19
2024,03,02,10,51,997.19
2024,03,02,10,52,997.22
2024,03,02,10,53,997.16
2024,03,02,10,54,997.29
2024,03,02,10,55,997.19
2024,03,02,10,56,997.19
2024,03,02,10,57,997.26
2024,03,02,10,58,997.33
2024,03,02,10,59,997.26
2024,03,02,11,00,997.22
2024,03,02,11,01,997.26
2024,03,02,11,02,997.26
2024,03,02,11,03,997.22
2024,03,02,11,04,997.26
2024,03,02,11,05,997.19
2024,03,02,11,06,997.26
2024,03,02,11,07,997.26
2024,03,02,11,08,997.22
2024,03,02,11,09,997.22
2024,03,02,11,10,997.26
2024,03,02,11,11,997.39
2024,03,02,11,12,997.39
2024,03,02,11,13,997.29
2024,03,02,11,14,997.36
2024,03,02,11,15,997.39
2024,03,02,11,16,997.39
2024,03,02,11,17,997.39
2024,03,02,11,18,997.43
2024,03,02,11,19,997.46
2024,03,02,11,20,997.50
2024,03,02,11,21,997.56
2024,03,02,11,22,997.60
2024,03,02,11,23,997.63
2024,03,02,11,24,997.63
2024,03,02,11,25,997.63
2024,03,02,11,26,997.66
2024,03,02,11,27,997.70
2024,03,02,11,28,998.00
2024,03,02,11,29,997.73
2024,03,02,11,30,997.77
2024,03,02,11,31,997.63
2024,03,02,11,32,997.70
2024,03,02,11,33,997.73
2024,03,02,11,34,997.77
2024,03,02,11,35,997.77
2024,03,02,11,36,997.73
2024,03,02,11,37,997.77
2024,03,02,11,38,997.83
2024,03,02,11,39,997.77
2024,03,02,11,40,997.87
2024,03,02,11,41,997.83
2024,03,02,11,42,997.83
2024,03,02,11,43,997.87
2024,03,02,11,44,997.80
2024,03,02,11,45,997.87
2024,03,02,11,46,997.90
2024,03,02,11,47,997.87
2024,03,02,11,48,998.00
2024,03,02,11,49,997.94
2024,03,02,11,50,997.97
2024,03,02,11,51,997.97
2024,03,02,11,52,998.00
2024,03,02,11,53,997.94
2024,03,02,11,54,997.94
2024,03,02,11,55,998.04
2024,03,02,11,56,998.10
2024,03,02,11,57,998.10
2024,03,02,11,58,998.14
2024,03,02,11,59,998.10
2024,03,02,12,00,998.24
2024,03,02,12,01,998.21
2024,03,02,12,02,998.24
2024,03,02,12,03,998.21
2024,03,02,12,04,998.24
2024,03,02,12,05,998.21
2024,03,02,12,06,998.31
2024,03,02,12,07,998.31
2024,03,02,12,08,998.24
2024,03,02,12,09,998.27
2024,03,02,12,10,998.31
2024,03,02,12,11,998.31
2024,03,02,12,12,998.34
2024,03,02,12,13,998.41
2024,03,02,12,14,998.34
2024,03,02,12,15,998.34
2024,03,02,12,16,998.34
2024,03,02,12,17,998.34
2024,03,02,12,18,998.41
2024,03,02,12,19,998.41
2024,03,02,12,20,998.54
2024,03,02,12,21,998.61
2024,03,02,12,22,998.58
2024,03,02,12,23,998.61
2024,03,02,12,24,998.61
2024,03,02,12,25,998.61
2024,03,02,12,26,998.58
2024,03,02,12,27,998.61
2024,03,02,12,28,998.71
2024,03,02,12,29,998.71
2024,03,02,12,30,998.82
2024,03,02,12,31,998.75
2024,03,02,12,32,998.78
2024,03,02,12,33,998.68
2024,03,02,12,34,998.68
2024,03,02,12,35,998.82
2024,03,02,12,36,998.71
2024,03,02,12,37,998.71
2024,03,02,12,38,998.65
2024,03,02,12,39,998.75
2024,03,02,12,40,998.61
2024,03,02,12,41,998.65
2024,03,02,12,42,998.68
2024,03,02,12,43,998.68
2024,03,02,12,44,998.68
2024,03,02,12,45,998.65
2024,03,02,12,46,998.68
2024,03,02,12,47,998.71
2024,03,02,12,48,998.71
2024,03,02,12,49,998.75
2024,03,02,12,50,998.75
2024,03,02,12,51,998.75
2024,03,02,12,52,998.82
2024,03,02,12,53,998.78
2024,03,02,12,54,998.92
2024,03,02,12,55,998.78
2024,03,02,12,56,998.75
2024,03,02,12,57,998.75
2024,03,02,12,58,998.75
2024,03,02,12,59,998.78
2024,03,02,13,00,998.82
2024,03,02,13,01,998.85
2024,03,02,13,02,998.82
2024,03,02,13,03,998.71
2024,03,02,13,04,998.82
2024,03,02,13,05,998.75
2024,03,02,13,06,998.82
2024,03,02,13,07,998.82
2024,03,02,13,08,998.71
2024,03,02,13,09,998.82
2024,03,02,13,10,998.82
2024,03,02,13,11,998.82
2024,03,02,13,12,998.75
2024,03,02,13,13,998.88
2024,03,02,13,14,998.92
2024,03,02,13,15,998.85
2024,03,02,13,16,998.82
2024,03,02,13,17,998.78
2024,03,02,13,18,998.82
2024,03,02,13,19,998.75
2024,03,02,13,20,998.82
2024,03,02,13,21,998.82
2024,03,02,13,22,998.82
2024,03,02,13,23,998.82
2024,03,02,13,24,998.75
2024,03,02,13,25,998.82
2024,03,02,13,26,998.85
2024,03,02,13,27,998.78
2024,03,02,13,28,998.82
2024,03,02,13,29,998.75
2024,03,02,13,30,998.82
2024,03,02,13,31,998.85
2024,03,02,13,32,998.85
2024,03,02,13,33,998.78
2024,03,02,13,34,998.82
2024,03,02,13,35,998.82
2024,03,02,13,36,998.92
2024,03,02,13,37,998.88
2024,03,02,13,38,998.85
2024,03,02,13,39,998.88
2024,03,02,13,40,998.78
2024,03,02,13,41,998.85
2024,03,02,13,42,998.85
2024,03,02,13,43,998.88
2024,03,02,13,44,998.85
2024,03,02,13,45,998.92
2024,03,02,13,46,998.92
2024,03,02,13,47,998.92
2024,03,02,13,48,998.92
2024,03,02,13,49,998.92
2024,03,02,13,50,998.95
2024,03,02,13,51,998.95
2024,03,02,13,52,998.88
2024,03,02,13,53,998.95
2024,03,02,13,54,998.99
2024,03,02,13,55,998.99
2024,03,02,13,56,999.02
2024,03,02,13,57,999.09
2024,03,02,13,58,999.12
2024,03,02,13,59,999.05
2024,03,02,14,00,999.05
2024,03,02,14,01,999.15
2024,03,02,14,02,999.22
2024,03,02,14,03,999.19
2024,03,02,14,04,999.26
2024,03,02,14,05,999.15
2024,03,02,14,06,999.15
2024,03,02,14,07,999.22
2024,03,02,14,08,999.15
2024,03,02,14,09,999.15
2024,03,02,14,10,999.26
2024,03,02,14,11,999.19
2024,03,02,14,12,999.26
2024,03,02,14,13,999.32
2024,03,02,14,14,999.26
2024,03,02,14,15,999.26
2024,03,02,14,16,999.29
2024,03,02,14,17,999.26
2024,03,02,14,18,999.36
2024,03,02,14,19,999.32
2024,03,02,14,20,999.26
2024,03,02,14,21,999.29
2024,03,02,14,22,999.32
2024,03,02,14,23,999.36
2024,03,02,14,24,999.32
2024,03,02,14,25,999.36
2024,03,02,14,26,999.29
2024,03,02,14,27,999.36
2024,03,02,14,28,999.43
2024,03,02,14,29,999.36
2024,03,02,14,30,999.36
2024,03,02,14,31,999.39
2024,03,02,14,32,999.43
2024,03,02,14,33,999.29
2024,03,02,14,34,999.36
2024,03,02,14,35,999.39
2024,03,02,14,36,999.39
2024,03,02,14,37,999.39
2024,03,02,14,38,999.36
2024,03,02,14,39,999.39
2024,03,02,14,40,999.36
2024,03,02,14,41,999.36
2024,03,02,14,42,999.32
2024,03,02,14,43,999.36
2024,03,02,14,44,999.32
2024,03,02,14,45,999.39
2024,03,02,14,46,999.39
2024,03,02,14,47,999.46
2024,03,02,14,48,999.46
2024,03,02,14,49,999.53
2024,03,02,14,50,999.43
2024,03,02,14,51,999.46
2024,03,02,14,52,999.56
2024,03,02,14,53,999.49
2024,03,02,14,54,999.53
2024,03,02,14,55,999.56
2024,03,02,14,56,999.59
2024,03,02,14,57,999.59
2024,03,02,14,58,999.63
2024,03,02,14,59,999.63
2024,03,02,15,00,999.59
2024,03,02,15,01,999.59
2024,03,02,15,02,999.70
2024,03,02,15,03,999.66
2024,03,02,15,04,999.70
2024,03,02,15,05,999.66
2024,03,02,15,06,999.70
2024,03,02,15,07,999.80
2024,03,02,15,08,999.80
2024,03,02,15,09,999.70
2024,03,02,15,10,999.80
2024,03,02,15,11,999.76
2024,03,02,15,12,999.76
2024,03,02,15,13,999.70
2024,03,02,15,14,999.76
2024,03,02,15,15,999.80
2024,03,02,15,16,999.80
2024,03,02,15,17,999.80
2024,03,02,15,18,999.80
2024,03,02,15,19,999.83
2024,03,02,15,20,999.73
2024,03,02,15,21,999.73
2024,03,02,15,22,999.83
2024,03,02,15,23,999.70
2024,03,02,15,24,999.73
2024,03,02,15,25,999.83
2024,03,02,15,26,999.80
2024,03,02,15,27,999.80
2024,03,02,15,28,999.83
2024,03,02,15,29,999.87
2024,03,02,15,30,999.90
2024,03,02,15,31,999.87
2024,03,02,15,32,999.90
2024,03,02,15,33,999.87
2024,03,02,15,34,999.93
2024,03,02,15,35,999.93
2024,03,02,15,36,999.93
2024,03,02,15,37,1000.00
2024,03,02,15,38,999.93
2024,03,02,15,39,999.97
2024,03,02,15,40,1000.07
2024,03,02,15,41,1000.03
2024,03,02,15,42,1000.07
2024,03,02,15,43,1000.07
2024,03,02,15,44,1000.03
2024,03,02,15,45,1000.07
2024,03,02,15,46,1000.10
2024,03,02,15,47,1000.14
2024,03,02,15,48,1000.10
2024,03,02,15,49,1000.14
2024,03,02,15,50,1000.17
2024,03,02,15,51,1000.14
2024,03,02,15,52,1000.14
2024,03,02,15,53,1000.24
2024,03,02,15,54,1000.24
2024,03,02,15,55,1000.24
2024,03,02,15,56,1000.27
2024,03,02,15,57,1000.31
2024,03,02,15,58,1000.31
2024,03,02,15,59,1000.34
2024,03,02,16,00,1000.31
2024,03,02,16,01,1000.37
2024,03,02,16,02,1000.34
2024,03,02,16,03,1000.44
2024,03,02,16,04,1000.51
2024,03,02,16,05,1000.51
2024,03,02,16,06,1000.58
2024,03,02,16,07,1000.58
2024,03,02,16,08,1000.54
2024,03,02,16,09,1000.58
2024,03,02,16,10,1000.58
2024,03,02,16,11,1000.61
2024,03,02,16,12,1000.58
2024,03,02,16,13,1000.68
2024,03,02,16,14,1000.71
2024,03,02,16,15,1000.64
2024,03,02,16,16,1000.71
2024,03,02,16,17,1000.75
2024,03,02,16,18,1000.61
2024,03,02,16,19,1000.71
2024,03,02,16,20,1000.71
2024,03,02,16,21,1000.71
2024,03,02,16,22,1000.71
2024,03,02,16,23,1000.75
2024,03,02,16,24,1000.75
2024,03,02,16,25,1000.71
2024,03,02,16,26,1000.75
2024,03,02,16,27,1000.81
2024,03,02,16,28,1000.75
2024,03,02,16,29,1000.75
2024,03,02,16,30,1000.78
2024,03,02,16,31,1000.78
2024,03,02,16,32,1000.75
2024,03,02,16,33,1000.81